Starlink 1788

operational
NORAD ID: 46689 Int'l Des: 2020-073 Owner: SPXS Country: US Constellation: starlink
LEOCIRCULARSTARLINK_TYPE

About Starlink 1788

Description loading...

Live Position

Loading 3D Globe...

Upcoming Passes

Altitude History

Altitude vs Time

uPlot chart will show altitude changes over time

Two-Line Element Set

1 46689U 20073V 25343.13315714 .00087606 00000-0 19849-2 0 9997
2 46689 53.0536 294.1275 0009558 72.8000 287.4050 15.42337645284641
Epoch: Dec 9, 2025 • Age: 10 hours

Current Status

Altitude 444.5 km
Velocity 7.64 km/s
Sub-Earth Point -9.29°S, 159.68°W
Launch Date Oct 18, 2020
Age 5.1 years
Type internet

Technical Details

Classification Payload
Mass 260.00 kg
Dry Mass 248.00 kg
Total Mass 260.00 kg
Length 0.20 m
Diameter 2.80 m
Span 9.00 m
Shape Box + pan
Manufacturer SPXS
Bus Type Starlink
Phase Status In Orbit
Owner/State SPXS/US

Large Constellations

Loading constellations...